Starlink 33752

operational
NORAD ID: 63580 Int'l Des: 2025-076 Owner: SPXS Country: US Constellation: starlink
LEOCIRCULAR

Über Starlink 33752

Beschreibung wird geladen...

Live-Position

3D-Globus wird geladen...

Nächste Überflüge

Höhenverlauf

Altitude vs Time

uPlot chart will show altitude changes over time

Zweizeiliger Elementsatz

1 63580U 25076M 25258.41848623 .00033935 00000-0 12357-2 0 9993
2 63580 43.0004 231.6456 0001452 273.2812 86.7874 15.27614498 25025
Epoch: 15. Sept. 2025 • Age: 14 hours

Aktueller Status

Höhe 482.5 km
Geschwindigkeit 7.63 km/s
Subsatellitenpunkt 19.31°N, 109.36°W
Startdatum 14. Apr. 2025
Alter 0.4 years
Typ internet

Technische Details

Klassifizierung Payload
Masse 575.00 kg
Trockenmasse 530.00 kg
Gesamtmasse 575.00 kg
Länge 0.30 m
Durchmesser 4.10 m
Spannweite 29.00 m
Form Box + pan
Hersteller SPXS
Bus-Typ Starlink V2MO
Phasenstatus In Orbit
Besitzer/Staat SPXS/US

Große Konstellationen

Loading constellations...